Flag for Canada Weather past 2 weeks in Ottawa, Ontario, Canada

55 °F

Light rain. Overcast.

Feels Like: 51 °F
Forecast: 32 / 55 °F
Wind: 20 mph from Southwest

Location: Ottawa Int'L. Ont.

Current Time: Nov 27, 2015 at 11:37:30 AM

Latest Report: Nov 27, 2015 at 11:00 AM

Visibility: 10 mi

Pressure: 30.13 "Hg

Humidity: 67%

Dew point: 45 °F

Location of OttawaLocation

Historic Weather in Ottawa — Graph


Ottawa temperature yesterday

Maximum temperature yesterday: 54 °F (at 7:00 PM)
Minimum temperature yesterday: 30 °F (at 12:00 AM)
Average temperature yesterday: 45 °F

Past Weeks' High & Low Weather Summary

High61 °F (Nov 19, 10:00 AM)100% (Nov 12, 11:00 AM)30.72 "Hg (Nov 12, 11:00 AM)
Low18 °F (Nov 23, 7:00 AM)39% (Nov 20, 4:00 PM)29.24 "Hg (Nov 13, 12:48 AM)
Average37 °F75%30.12 "Hg
* Reported Nov 12 10:00 AM — Nov 27 10:00 AM, Ottawa, Weather by CustomWeather, © 2015

Note: Actual official high and low records may vary slightly from our data, if they occured in-between our weather recording intervals... More about our weather records


Ottawa weather history for previous 24 hours

Time TempWeatherWind HumidityBarometerVisibility
10:00 AM
Fri, Nov 27
55 °FMostly cloudy.22 mph63%30.14 "Hg15 mi
9:02 AM55 °FLight rain. Overcast.23 mph67%30.15 "Hg15 mi
8:00 AM54 °FMostly cloudy.20 mph67%30.17 "Hg15 mi
7:00 AM55 °FOvercast.18 mph63%30.17 "Hg15 mi
6:00 AM55 °FOvercast.20 mph63%30.18 "Hg15 mi
5:00 AM55 °FOvercast.24 mph59%30.20 "Hg15 mi
4:00 AM55 °FOvercast.23 mph59%30.20 "Hg15 mi
3:00 AM55 °FMostly cloudy.20 mph59%30.23 "Hg15 mi
2:00 AM55 °FOvercast.20 mph59%30.25 "Hg15 mi
1:00 AM54 °FMostly cloudy.18 mph63%30.25 "Hg15 mi
12:00 AM54 °FMostly cloudy.21 mph63%30.29 "Hg15 mi
11:00 PM
Thu, Nov 26
54 °FOvercast.16 mph58%30.31 "Hg15 mi
10:00 PM54 °FPassing clouds.18 mph63%30.32 "Hg15 mi
9:00 PM54 °FPartly cloudy.15 mph63%30.34 "Hg15 mi
8:00 PM54 °FOvercast.12 mph63%30.37 "Hg15 mi
7:00 PM54 °FOvercast.14 mph58%30.37 "Hg15 mi
6:00 PM52 °FMostly cloudy.10 mph62%30.40 "Hg15 mi
5:00 PM52 °FPartly cloudy.9 mph58%30.42 "Hg15 mi
4:00 PM50 °FCloudy.12 mph62%30.42 "Hg15 mi
3:00 PM50 °FMostly cloudy.12 mph58%30.44 "Hg15 mi
2:47 PM50 °FMostly cloudy.13 mph58%30.44 "Hg15 mi
2:00 PM50 °FMostly cloudy.10 mph58%30.45 "Hg15 mi
1:00 PM48 °FSprinkles. Mostly cloudy.9 mph66%30.47 "Hg15 mi
12:00 PM50 °FMostly cloudy.10 mph54%30.50 "Hg15 mi
11:00 AM50 °FCloudy.13 mph54%30.52 "Hg15 mi
Weather by CustomWeather, © 2015

See weather overviewHow to use our weather pages